Weather History for George, George Airport, South Africa

Change the Weather History Date:

Tuesday, December 31, 2013

  Actual Average Record
Temperature  
Mean Temperature 68 °F -  
Max Temperature 76 °F 74 °F - ()
Min Temperature 59 °F 58 °F - ()
Cooling Degree Days 2    
Growing Degree Days 18 (Base 50)    
Moisture  
Dew Point 61 °F    
Average Humidity 77    
Maximum Humidity 94    
Minimum Humidity 54    
Precipitation  
Precipitation 0.00 in - - ()
Sea Level Pressure  
Sea Level Pressure 30.02 in    
Wind  
Wind Speed 6 mph ()    
Max Wind Speed 16 mph    
Max Gust Speed -    
Visibility 7.4 miles    
Events      
T = Trace of Precipitation, MM = Missing Value Source: Averaged Metar Reports

Daily Weather History Graph

Daily Weather History Graph

Search for Another Location

Airport:

Trip Planner

Search our weather history database for the weather conditions in past years. The results will help you decide how hot, cold, wet, or windy it might be!

Date:

Astronomy

Dec. 31, 2013 Rise Set
Actual Time 5:21 AM SAST 7:44 PM SAST
Civil Twilight 4:52 AM SAST 8:14 PM SAST
Nautical Twilight 4:17 AM SAST 8:49 PM SAST
Astronomical Twilight 3:37 AM SAST 9:28 PM SAST
Moon 4:15 AM SAST (12/31) 6:40 PM SAST (12/31)
Length of Visible Light 15h 21m
Length of Day
14h 23m
Waning Crescent, 2% of the Moon is Illuminated
Dec 31
Waning Crescent
Jan 1
New
Jan 8
First Quarter
Jan 16
Full
Jan 24
Last Quarter

Hourly Weather History & Observations

Time (SAST) Temp. Dew Point Humidity Pressure Visibility Wind Dir Wind Speed Gust Speed Precip Events Conditions
12:00 AM 62.6 °F 59.0 °F 88% 30.06 in - WNW 4.6 mph - N/A   Clear
1:00 AM 62.6 °F 60.8 °F 94% 30.06 in - WNW 4.6 mph - N/A   Clear
2:00 AM 62 °F 58 °F 84% 30.05 in 6 mi West 4.6 mph - -  
2:00 AM 62.6 °F 59.0 °F 88% 30.04 in - WNW 4.6 mph - N/A   Clear
3:00 AM 60.8 °F 57.2 °F 88% 30.04 in - West 4.6 mph - N/A   Clear
4:00 AM 62.6 °F 57.2 °F 82% 30.04 in 6.2 mi NW 3.5 mph - N/A   Scattered Clouds
5:00 AM 61 °F 58 °F 85% 30.05 in 12 mi NW 3.5 mph - -   Scattered Clouds
5:00 AM 60.8 °F 57.2 °F 88% 30.04 in 6.2 mi NW 3.5 mph - N/A   Partly Cloudy
6:00 AM 60.8 °F 57.2 °F 88% 30.04 in 6.2 mi NNE 3.5 mph - N/A   Partly Cloudy
7:00 AM 66.2 °F 60.8 °F 83% 30.04 in - Variable 1.2 mph - N/A   Clear
8:00 AM 69 °F 60 °F 65% 30.05 in 12 mi SSE 3.5 mph - -   Partly Cloudy
8:00 AM 68.0 °F 60.8 °F 78% 30.06 in 6.2 mi SSE 3.5 mph - N/A   Scattered Clouds
9:00 AM 69.8 °F 60.8 °F 73% 30.04 in 6.2 mi SSE 4.6 mph - N/A   Mostly Cloudy
10:00 AM 69.8 °F 60.8 °F 73% 30.04 in 6.2 mi SSE 6.9 mph - N/A   Scattered Clouds
11:00 AM 73 °F 63 °F 63% 30.02 in 12 mi SE 8.1 mph - -   Scattered Clouds
11:00 AM 73.4 °F 62.6 °F 69% 30.04 in 6.2 mi SE 8.1 mph - N/A   Partly Cloudy
12:00 PM 73.4 °F 62.6 °F 69% 30.01 in 6.2 mi SSE 15.0 mph - N/A   Partly Cloudy
1:00 PM 75.2 °F 60.8 °F 61% 30.01 in 6.2 mi SSE 11.5 mph - N/A   Partly Cloudy
2:00 PM 74 °F 61 °F 54% 30.02 in 12 mi SSE 11.5 mph - -   Scattered Clouds
2:00 PM 75.2 °F 60.8 °F 61% 30.01 in 6.2 mi SE 12.7 mph - N/A   Partly Cloudy
3:00 PM 75.2 °F 59.0 °F 57% 30.01 in 6.2 mi SE 13.8 mph - N/A   Partly Cloudy
4:00 PM 75.2 °F 60.8 °F 61% 29.98 in 6.2 mi ESE 15.0 mph - N/A   Partly Cloudy
5:00 PM 73.4 °F 62.6 °F 69% 29.98 in 6.2 mi ESE 16.1 mph - N/A   Scattered Clouds
6:00 PM 71.6 °F 64.4 °F 78% 29.95 in 6.2 mi ESE 13.8 mph - N/A   Scattered Clouds
7:00 PM 69.8 °F 64.4 °F 83% 29.98 in 6.2 mi ESE 11.5 mph - N/A   Mostly Cloudy
8:00 PM 69 °F 64 °F 81% 29.98 in 12 mi ESE 15.0 mph - -   Mostly Cloudy
8:00 PM 69.8 °F 64.4 °F 83% 29.98 in 6.2 mi ESE 15.0 mph - N/A   Mostly Cloudy
9:00 PM 68.0 °F 66.2 °F 94% 29.95 in 6.2 mi East 12.7 mph - N/A   Mostly Cloudy
10:00 PM 68.0 °F 64.4 °F 88% 29.95 in - ESE 9.2 mph - N/A   Clear
11:00 PM 66.2 °F 64.4 °F 94% 29.95 in 6.2 mi East 3.5 mph - N/A   Partly Cloudy